• In Österreich
  • Länderverzeichnis
  • Für 7 Tage
  • Wassertemperatur
  • Satellitenkarten
  • Wetterkarte
  • News
  • Widgets
  • user-avatar
    Anmelden

    Stündliche Wetter Kenai Peninsula

    Heute, 22 Januar, Montag

    Zeit Temperatur Niederschläge Wind Luftdruck Luftfeuchtigkeit
    00:00 -14°C° 0 mm 4 m/S 747 mmHg 74%
    01:00 -14°C° 0 mm 4 m/S 747 mmHg 75%
    02:00 -10°C° 0 mm 3 m/S 747 mmHg 81%
    03:00 -10°C° 0 mm 3 m/S 747 mmHg 81%
    04:00 -10°C° 0 mm 3 m/S 747 mmHg 82%
    05:00 -11°C° 0 mm 4 m/S 748 mmHg 83%
    06:00 -10°C° 0 mm 3 m/S 748 mmHg 83%
    07:00 -12°C° 0 mm 3 m/S 748 mmHg 83%
    08:00 -12°C° 0 mm 3 m/S 748 mmHg 83%
    09:00 -10°C° 0 mm 3 m/S 748 mmHg 82%
    10:00 -11°C° 0 mm 4 m/S 748 mmHg 80%
    11:00 -11°C° 0 mm 4 m/S 749 mmHg 78%
    12:00 -11°C° 0 mm 4 m/S 749 mmHg 78%
    13:00 -10°C° 0 mm 4 m/S 749 mmHg 77%
    14:00 -10°C° 0 mm 4 m/S 749 mmHg 77%
    15:00 -11°C° 0 mm 4 m/S 749 mmHg 78%
    16:00 -10°C° 0 mm 3 m/S 750 mmHg 80%
    17:00 -10°C° 0 mm 3 m/S 750 mmHg 81%
    18:00 -10°C° 0,1 mm 3 m/S 750 mmHg 83%
    19:00 -10°C° 0,1 mm 3 m/S 751 mmHg 84%
    20:00 -10°C° 0,1 mm 3 m/S 751 mmHg 85%
    21:00 -10°C° 0,3 mm 3 m/S 752 mmHg 88%
    22:00 -10°C° 0,3 mm 3 m/S 752 mmHg 90%
    23:00 -10°C° 0,3 mm 3 m/S 753 mmHg 92%

    Morgen, 23 Januar, Dienstag

    Zeit Temperatur Niederschläge Wind Luftdruck Luftfeuchtigkeit
    00:00 -10°C° 0,3 mm 3 m/S 753 mmHg 92%
    01:00 -10°C° 0,3 mm 3 m/S 754 mmHg 93%
    02:00 -12°C° 0,3 mm 3 m/S 754 mmHg 93%
    03:00 -12°C° 0,2 mm 3 m/S 754 mmHg 93%
    04:00 -12°C° 0,2 mm 3 m/S 755 mmHg 93%
    05:00 -12°C° 0,2 mm 3 m/S 755 mmHg 93%
    06:00 -12°C° 0 mm 3 m/S 755 mmHg 93%
    07:00 -12°C° 0 mm 3 m/S 755 mmHg 93%
    08:00 -13°C° 0 mm 3 m/S 755 mmHg 92%
    09:00 -13°C° 0 mm 3 m/S 755 mmHg 91%
    10:00 -12°C° 0 mm 3 m/S 755 mmHg 89%
    11:00 -12°C° 0 mm 3 m/S 756 mmHg 87%
    12:00 -12°C° 0,1 mm 3 m/S 755 mmHg 87%
    13:00 -12°C° 0,1 mm 3 m/S 755 mmHg 86%
    14:00 -12°C° 0,1 mm 3 m/S 755 mmHg 85%
    15:00 -13°C° 0 mm 3 m/S 755 mmHg 85%
    16:00 -14°C° 0 mm 3 m/S 755 mmHg 85%
    17:00 -14°C° 0 mm 3 m/S 755 mmHg 85%
    18:00 -15°C° 0 mm 3 m/S 755 mmHg 84%
    19:00 -15°C° 0 mm 3 m/S 755 mmHg 83%
    20:00 -15°C° 0 mm 3 m/S 755 mmHg 82%
    21:00 -16°C° 0 mm 3 m/S 755 mmHg 81%
    22:00 -16°C° 0 mm 3 m/S 755 mmHg 80%
    23:00 -17°C° 0 mm 3 m/S 755 mmHg 79%

    übermorgen, 24 Januar, Mittwoch

    Zeit Temperatur Niederschläge Wind Luftdruck Luftfeuchtigkeit
    00:00 -17°C° 0 mm 3 m/S 755 mmHg 78%
    01:00 -18°C° 0 mm 3 m/S 755 mmHg 76%
    02:00 -18°C° 0 mm 3 m/S 755 mmHg 75%
    03:00 -19°C° 0 mm 3 m/S 755 mmHg 75%
    04:00 -19°C° 0 mm 3 m/S 755 mmHg 75%
    05:00 -18°C° 0 mm 2 m/S 755 mmHg 75%
    06:00 -19°C° 0 mm 2 m/S 755 mmHg 74%
    07:00 -19°C° 0 mm 2 m/S 755 mmHg 74%
    08:00 -19°C° 0 mm 2 m/S 755 mmHg 73%
    09:00 -19°C° 0 mm 2 m/S 755 mmHg 71%
    10:00 -18°C° 0 mm 2 m/S 755 mmHg 68%
    11:00 -17°C° 0 mm 2 m/S 755 mmHg 66%
    12:00 -17°C° 0 mm 2 m/S 755 mmHg 66%
    13:00 -17°C° 0 mm 2 m/S 755 mmHg 66%
    14:00 -17°C° 0 mm 2 m/S 755 mmHg 66%
    15:00 -18°C° 0 mm 2 m/S 755 mmHg 68%
    16:00 -19°C° 0 mm 2 m/S 755 mmHg 70%
    17:00 -20°C° 0 mm 2 m/S 756 mmHg 73%
    18:00 -20°C° 0 mm 2 m/S 756 mmHg 73%
    19:00 -20°C° 0 mm 2 m/S 756 mmHg 73%
    20:00 -20°C° 0 mm 2 m/S 756 mmHg 73%
    21:00 -20°C° 0 mm 2 m/S 756 mmHg 73%
    22:00 -21°C° 0 mm 2 m/S 756 mmHg 73%
    23:00 -21°C° 0 mm 2 m/S 756 mmHg 74%

    25 Januar, Donnerstag

    Zeit Temperatur Niederschläge Wind Luftdruck Luftfeuchtigkeit
    00:00 -21°C° 0 mm 2 m/S 756 mmHg 74%
    01:00 -21°C° 0 mm 2 m/S 756 mmHg 74%
    02:00 -21°C° 0 mm 2 m/S 756 mmHg 74%
    03:00 -23°C° 0 mm 2 m/S 755 mmHg 74%
    04:00 -23°C° 0 mm 2 m/S 755 mmHg 74%
    05:00 -23°C° 0 mm 2 m/S 755 mmHg 74%
    06:00 -23°C° 0 mm 2 m/S 755 mmHg 74%
    07:00 -24°C° 0 mm 2 m/S 755 mmHg 74%
    08:00 -24°C° 0 mm 2 m/S 754 mmHg 74%
    09:00 -23°C° 0 mm 2 m/S 754 mmHg 72%
    10:00 -21°C° 0 mm 2 m/S 754 mmHg 70%
    11:00 -21°C° 0 mm 2 m/S 754 mmHg 68%
    12:00 -21°C° 0 mm 2 m/S 754 mmHg 68%
    13:00 -20°C° 0 mm 2 m/S 753 mmHg 68%
    14:00 -20°C° 0 mm 2 m/S 753 mmHg 67%
    15:00 -21°C° 0 mm 2 m/S 753 mmHg 70%
    16:00 -23°C° 0 mm 2 m/S 753 mmHg 73%
    17:00 -24°C° 0 mm 2 m/S 753 mmHg 75%
    18:00 -24°C° 0 mm 2 m/S 753 mmHg 75%
    19:00 -25°C° 0 mm 3 m/S 753 mmHg 75%
    20:00 -25°C° 0 mm 3 m/S 753 mmHg 75%
    21:00 -26°C° 0 mm 3 m/S 753 mmHg 74%
    22:00 -26°C° 0 mm 3 m/S 753 mmHg 74%
    23:00 -27°C° 0 mm 4 m/S 753 mmHg 74%

    26 Januar, Freitag

    Zeit Temperatur Niederschläge Wind Luftdruck Luftfeuchtigkeit
    00:00 -27°C° 0 mm 4 m/S 752 mmHg 74%
    01:00 -27°C° 0 mm 4 m/S 752 mmHg 74%
    02:00 -27°C° 0 mm 4 m/S 751 mmHg 74%
    03:00 -27°C° 0 mm 4 m/S 751 mmHg 75%
    04:00 -26°C° 0 mm 4 m/S 751 mmHg 75%
    05:00 -26°C° 0 mm 4 m/S 750 mmHg 75%
    06:00 -26°C° 0 mm 4 m/S 750 mmHg 74%
    07:00 -25°C° 0 mm 4 m/S 750 mmHg 74%
    08:00 -25°C° 0 mm 4 m/S 750 mmHg 73%
    09:00 -24°C° 0 mm 4 m/S 749 mmHg 72%
    10:00 -23°C° 0 mm 4 m/S 749 mmHg 72%
    11:00 -20°C° 0 mm 4 m/S 749 mmHg 71%
    12:00 -19°C° 0 mm 4 m/S 749 mmHg 72%
    13:00 -18°C° 0 mm 4 m/S 749 mmHg 74%
    14:00 -17°C° 0 mm 4 m/S 749 mmHg 75%
    15:00 -17°C° 0 mm 4 m/S 749 mmHg 77%
    16:00 -16°C° 0 mm 4 m/S 750 mmHg 80%
    17:00 -16°C° 0 mm 4 m/S 750 mmHg 82%
    18:00 -15°C° 0 mm 4 m/S 751 mmHg 82%
    19:00 -15°C° 0 mm 4 m/S 751 mmHg 81%
    20:00 -14°C° 0 mm 4 m/S 752 mmHg 80%
    21:00 -14°C° 0 mm 4 m/S 752 mmHg 81%
    22:00 -14°C° 0 mm 4 m/S 753 mmHg 81%
    23:00 -13°C° 0 mm 3 m/S 753 mmHg 81%

    27 Januar, Samstag

    Zeit Temperatur Niederschläge Wind Luftdruck Luftfeuchtigkeit
    00:00 -13°C° 0 mm 3 m/S 753 mmHg 81%
    01:00 -13°C° 0 mm 3 m/S 754 mmHg 81%
    02:00 -12°C° 0 mm 3 m/S 754 mmHg 81%
    03:00 -13°C° 0 mm 3 m/S 754 mmHg 81%
    04:00 -13°C° 0 mm 3 m/S 754 mmHg 80%
    05:00 -13°C° 0 mm 3 m/S 754 mmHg 80%
    06:00 -13°C° 0 mm 3 m/S 754 mmHg 79%
    07:00 -13°C° 0 mm 3 m/S 754 mmHg 78%
    08:00 -13°C° 0 mm 3 m/S 755 mmHg 77%
    09:00 -12°C° 0 mm 3 m/S 755 mmHg 75%
    10:00 -10°C° 0 mm 3 m/S 755 mmHg 73%
    11:00 -9°C° 0 mm 3 m/S 755 mmHg 71%
    12:00 -9°C° 0 mm 3 m/S 755 mmHg 70%
    13:00 -8°C° 0 mm 3 m/S 755 mmHg 70%
    14:00 -8°C° 0 mm 3 m/S 755 mmHg 70%
    15:00 -9°C° 0 mm 3 m/S 756 mmHg 71%
    16:00 -10°C° 0 mm 3 m/S 756 mmHg 71%
    17:00 -10°C° 0 mm 3 m/S 756 mmHg 72%
    18:00 -10°C° 0 mm 3 m/S 757 mmHg 72%
    19:00 -12°C° 0 mm 3 m/S 757 mmHg 72%
    20:00 -12°C° 0 mm 3 m/S 757 mmHg 72%
    21:00 -12°C° 0 mm 3 m/S 758 mmHg 72%
    22:00 -12°C° 0 mm 3 m/S 758 mmHg 72%
    23:00 -12°C° 0 mm 3 m/S 759 mmHg 72%
    Mehr zeigen